STARLINK-5441, 54787

Orbit data source: Space-Track

STARLINK-5441, 54787 is a payload satellite owned by SpaceX/Seattle (US) in LEO that was launched on Sat, 17 Dec 2022 UTC via an FALCON 9 launch vehicle from the Air Force Eastern Test Range (AFETR). Payload-class satellites include a variety of spacecraft equipped with specific instruments for various scientific and technological missions. These include communications satellites like Starlink; space stations such as the ISS; scientific satellites like the Hubble; Earth observation satellites from companies like Planet Labs, Umbra, and HawkEye 360; GPS; miniature CubeSats for education and research; and military/defense satellites.

Loading next visibility...
Identifier
54787, 2022-175AF
Orbit
LEO
Country
Flag of USUS
Related business
Manufacturer
SpaceX/Seattle
Mission
Operational Commercial Communications
Bus & Motor
STARLINK, Unknown motor
Mass
305 kg wet, ~290 kg dry
Launch date (UTC)
2022-12-17 (4 years ago)
Launch vehicle
FALCON 9
Launch site
Air Force Eastern Test Range (AFETR)
Object type
Payload
Rocket body
Debris
Shape & HBR
Box + 1 Pan, 10.1 m
Radar Cross Section
13.562 m², Large (>1 m²)

Expand to show TLE details & history
Last TLE update: 3 days ago

TLE from 3 days ago
0 STARLINK-5441
1 54787U 22175AF  26170.63743507  .00001483  00000-0  11128-3 0  9991
2 54787  53.1605 306.0659 0001060  91.1960 268.9153 15.08828452195311
Epoch: 2026-06-19T15:17Z
TLE epoch observation values (Epoch: 2026-06-19T15:17:54.390Z)
Latitude
0.00001°
Longitude
168.72573°
Altitude
540.684 km
Speed
7.593 km/s
True Right ascension
20h 24m 15s
True Declination
0° 00' 00"
Sunlit
Object was in full shadow at epoch
Visualization orbit readout
Latitude
Unknown
Longitude
Unknown
Altitude
Unknown
Speed
Unknown
Apparent Right ascension
Unknown
Apparent Declination
Unknown
Sunlit
N/A
Visualization observer readout
Local Sidereal Time
21:46:21
Azimuth
Unknown
Elevation
Unknown
Doppler factor
Unknown
Orbital elements
Apogee altitude
540.766 km
Perigee altitude
539.299 km
Semi-major axis
6,918.17 km
Eccentricity
0.00011
Inclination
53.1605°
RAAN
306.0659°
Arg. of periapsis
91.196°
True anomaly
268.90316°
Mean anomaly
268.9153°
Eccentric anomaly
268.90923°
Mean motion
3.77187 °/min
Orbital period
95.44 mins
BSTAR
0.00011128
Loading maneuver chart data...
Computing Atmospheric mass density...

Documentation

Showing up to 5 results
|